Wind_Speed
25 25 25 24 24 24 24 24 23 23 23 23 23 23 23 23 23 23 23 22 22 22 21 20 19 17 16 15 15 15 15 16 17 16 16 16 17 18 19 19 20 20 21 22 23 23 24 25 26 27 27 28 28 28 29 29 30 30 29 27 25 24 25 27 27 26 26 26 26 25 24 23 23 25 23 22 22 23 22 23 22 21 23 22 19 16 14 16
27 27 27 27 27 26 26 26 26 25 25 25 25 25 25 25 24 24 24 23 23 22 21 20 19 18 18 17 17 17 18 19 20 19 19 19 19 20 21 22 22 23 24 24 25 26 27 28 29 29 30 30 30 31 31 31 31 30 29 25 24 25 25 27 29 30 28 26 26 26 26 25 24 25 24 23 24 25 23 24 25 23 24 24 21 17 15 16
28 28 28 28 27 27 27 27 26 26 26 26 26 26 25 25 25 24 24 24 23 23 22 21 21 20 20 20 20 20 21 22 23 23 22 22 22 23 23 24 24 25 26 27 28 28 29 30 31 32 32 32 32 33 33 33 32 30 28 24 23 26 25 28 31 32 31 28 26 27 27 26 26 27 26 25 25 25 24 25 27 25 25 26 22 19 16 16
27 27 27 27 27 27 27 27 27 26 26 26 26 26 25 25 25 25 25 24 24 24 24 23 23 23 23 23 23 23 24 25 26 26 25 25 25 26 26 26 27 28 29 30 30 31 31 32 33 34 34 33 33 34 33 33 32 29 27 25 25 26 25 29 33 32 33 30 28 28 27 26 27 27 27 28 26 24 25 27 28 27 27 26 24 21 19 18
28 28 28 27 27 27 27 27 27 27 27 26 27 26 27 26 26 27 26 26 26 26 26 26 26 26 26 26 26 26 27 28 29 29 28 28 29 29 30 30 30 31 32 32 33 33 33 34 34 34 34 33 33 32 32 32 32 28 26 27 27 27 26 28 33 33 33 33 31 30 29 26 26 27 28 29 27 24 26 28 29 29 29 27 25 24 22 20
31 30 30 30 29 29 29 29 29 29 29 29 29 29 29 29 29 29 29 29 29 29 29 29 29 29 29 29 29 29 29 31 32 32 31 32 32 32 32 32 32 33 33 33 33 33 33 34 33 33 32 32 31 30 31 32 33 30 27 28 29 30 27 27 32 33 34 34 33 33 31 27 28 29 28 27 27 25 26 29 30 29 29 27 25 25 24 22
34 34 33 33 33 33 32 32 32 32 32 32 32 32 32 32 32 32 32 33 33 33 33 33 33 32 33 32 32 31 30 32 35 35 33 33 33 33 32 32 32 32 32 32 32 32 32 32 32 33 32 31 31 30 32 33 33 33 30 29 31 32 30 29 32 32 33 34 34 35 34 30 31 32 26 22 22 22 24 28 30 29 28 26 24 25 24 23
37 37 36 36 36 36 36 36 36 36 35 35 35 35 35 35 35 35 36 36 36 36 36 36 35 35 35 33 33 31 28 32 36 35 33 32 31 31 30 30 30 30 30 30 30 31 31 32 33 34 34 33 33 32 34 35 35 34 33 33 33 32 32 31 30 31 32 33 34 37 35 32 33 33 22 16 17 21 24 26 28 29 27 26 25 24 24 24
39 39 39 39 39 38 38 38 38 38 38 38 38 38 38 38 38 37 38 38 38 38 38 38 37 37 36 34 33 27 25 32 35 33 33 31 29 29 29 29 29 29 30 30 31 32 33 35 35 37 37 36 35 35 36 37 36 35 36 35 33 32 31 30 29 30 32 33 36 39 37 34 35 31 18 15 22 26 29 29 29 31 30 30 29 26 25 24
40 40 40 40 40 40 40 40 40 40 40 40 40 40 40 39 39 38 39 39 39 39 38 38 37 36 34 32 30 21 23 33 33 31 32 31 30 29 29 30 30 30 31 32 33 35 36 38 38 39 39 38 36 36 36 37 37 36 38 36 33 32 30 30 29 30 34 36 37 41 40 36 35 30 18 18 28 32 32 31 32 33 32 33 32 31 29 26
39 39 39 39 39 39 39 39 39 39 40 40 40 39 38 38 37 37 37 37 37 37 36 36 35 34 32 30 25 19 24 31 30 31 32 32 32 31 31 32 32 33 34 34 36 37 39 40 40 40 40 39 37 37 37 37 38 38 39 38 34 34 31 30 31 32 37 39 38 42 43 38 34 31 22 22 32 35 33 31 31 32 31 32 34 34 33 29
37 38 38 38 38 38 38 37 37 38 38 38 38 37 36 36 35 35 35 35 35 35 34 34 33 33 32 28 22 22 27 29 30 32 34 36 36 34 35 35 35 36 36 37 38 39 40 41 41 42 41 41 38 38 38 37 39 39 40 40 35 36 33 30 34 36 38 40 39 44 46 39 33 31 26 26 32 34 33 31 31 32 31 33 34 35 35 33
38 38 38 38 38 37 37 37 37 37 37 37 37 37 36 36 35 35 35 35 35 35 35 36 35 35 35 30 25 27 30 29 32 35 38 39 38 37 36 36 37 38 38 38 39 40 41 42 43 43 42 41 39 39 39 39 40 39 42 42 38 39 35 31 38 39 38 41 41 45 49 42 34 31 28 29 33 33 33 32 30 29 30 32 34 35 35 34
40 40 40 39 39 39 38 38 38 38 38 39 38 38 38 38 38 38 38 38 38 39 39 39 39 40 40 34 29 30 31 32 35 38 40 41 39 38 37 38 38 38 39 40 40 41 42 43 44 44 42 42 40 40 40 41 42 40 42 44 42 44 41 35 39 39 37 41 43 47 50 44 37 34 31 31 34 34 33 31 29 26 27 29 32 34 35 35
43 42 42 42 42 41 41 41 41 41 41 41 41 41 41 41 41 41 41 41 42 42 42 43 43 43 43 37 33 33 33 34 37 39 41 41 40 40 38 39 39 39 40 40 40 41 42 44 45 44 44 42 41 41 42 44 44 41 45 47 46 49 48 42 39 38 38 42 44 47 51 45 38 36 34 34 35 35 34 32 29 26 25 26 28 31 33 33
44 44 44 44 44 44 44 44 44 44 44 44 44 44 44 44 44 44 44 44 45 45 45 45 45 46 46 40 36 35 35 37 39 40 40 41 41 40 39 39 39 40 40 40 41 42 43 46 46 46 46 44 42 42 44 48 46 43 47 51 49 50 51 46 40 36 38 43 46 48 51 46 38 37 38 37 36 35 32 30 28 27 26 26 27 29 30 31
45 45 45 45 45 45 45 45 45 45 46 46 46 46 46 46 46 46 46 46 46 47 47 47 46 47 47 43 39 37 37 39 40 40 40 40 40 39 39 39 39 40 42 43 44 44 46 48 49 49 48 45 42 43 47 51 48 46 50 52 52 52 51 49 42 36 38 44 48 49 50 47 41 38 37 36 36 33 30 28 27 27 28 28 29 29 28 29
46 46 46 46 46 46 47 47 47 46 47 47 47 47 47 47 47 47 47 47 48 48 48 48 47 48 47 44 41 39 39 40 40 41 40 39 39 39 40 40 41 42 44 45 46 47 48 50 51 51 49 45 43 45 50 51 50 51 52 52 53 52 51 49 44 39 40 46 49 50 50 47 43 39 35 34 35 33 29 27 28 28 28 28 28 28 27 27
47 47 47 47 47 47 48 48 48 48 48 48 48 48 48 49 48 48 48 48 48 48 49 49 48 49 48 44 43 42 42 42 42 42 41 40 40 41 42 43 43 44 46 46 47 48 50 51 53 52 48 44 44 48 52 51 51 52 53 54 53 53 51 47 44 43 45 49 50 49 49 48 46 41 36 33 34 34 30 29 29 28 27 26 25 25 25 24
49 48 48 48 48 49 49 49 49 49 49 49 50 50 49 50 49 49 49 49 49 49 50 50 50 50 49 46 46 46 45 44 44 42 41 41 42 43 44 45 46 47 47 47 48 49 50 52 54 50 46 45 47 51 52 51 52 53 53 54 54 54 52 46 45 45 47 52 52 48 49 50 48 44 39 35 34 33 32 31 28 26 25 24 23 21 21 22
50 50 50 50 50 50 50 50 51 51 51 51 51 51 52 51 51 52 51 50 50 51 51 51 52 52 49 48 49 50 49 48 46 44 43 43 44 45 46 47 48 48 48 48 49 49 49 53 52 47 45 48 51 51 51 52 52 53 53 54 54 54 52 48 47 46 48 53 52 50 51 50 47 44 42 38 33 32 33 34 30 25 23 22 22 22 22 22
52 52 52 52 52 52 52 52 53 53 53 52 52 53 53 53 54 54 54 53 50 51 53 52 53 54 51 51 52 52 52 50 47 46 46 45 45 46 47 48 48 48 48 48 48 48 51 53 49 45 46 49 50 49 50 51 52 52 51 53 54 52 52 52 50 48 50 53 53 52 51 49 48 46 43 38 33 32 33 35 33 26 23 22 24 25 24 23
53 53 53 53 53 54 54 54 54 55 55 55 54 54 54 55 55 55 57 57 53 50 52 53 54 55 54 54 54 53 54 51 49 48 47 47 47 47 48 49 49 49 49 47 46 48 52 53 48 46 48 49 49 49 50 50 50 50 49 51 53 50 52 56 54 51 53 54 54 54 50 49 49 48 45 38 32 33 33 33 33 29 27 26 26 28 27 25
55 55 55 55 56 56 55 55 56 56 57 57 56 56 56 56 57 57 58 59 57 53 52 52 54 56 56 55 55 54 53 52 51 49 48 49 48 48 48 48 49 49 48 46 46 49 52 51 48 47 47 49 50 50 49 49 49 48 48 50 50 49 51 55 55 54 55 54 54 54 51 48 48 48 46 39 33 33 34 33 32 31 31 30 28 29 27 25
57 57 58 58 58 58 57 57 57 58 59 59 58 58 58 58 58 59 59 60 59 56 55 54 54 56 56 56 55 54 53 51 50 50 48 47 47 47 47 47 48 47 45 45 46 49 50 48 46 46 46 47 49 49 47 46 47 49 49 48 48 49 51 53 53 55 56 55 53 54 52 48 47 48 48 43 39 37 37 37 36 34 34 33 33 33 30 28
56 56 57 58 58 59 58 58 58 59 59 59 59 59 59 60 60 60 60 60 59 58 59 58 56 55 55 55 54 53 52 50 49 48 47 45 45 45 46 46 46 45 44 44 47 50 49 45 45 45 45 46 48 48 45 44 48 51 49 47 48 50 51 51 52 53 55 56 55 56 56 52 48 48 50 49 46 45 44 43 41 39 37 37 37 37 35 35
54 54 54 55 56 57 58 58 58 58 58 58 58 59 60 60 60 60 60 60 60 59 61 62 59 57 54 52 52 51 50 50 49 48 46 46 45 45 46 45 44 45 45 46 49 50 47 45 45 44 45 47 48 47 44 46 51 52 50 49 50 51 51 51 52 53 55 56 57 57 60 58 51 49 53 52 50 51 52 51 48 45 44 43 41 39 38 40
50 51 52 53 54 55 55 56 56 56 56 55 55 55 57 58 58 57 58 60 61 60 62 63 60 58 56 54 54 52 51 50 50 50 49 49 48 47 47 46 45 46 46 47 50 49 47 47 47 46 47 48 48 47 48 50 52 52 51 52 53 52 52 52 52 54 56 57 59 59 60 60 55 51 56 56 53 54 56 56 54 52 51 49 47 45 44 45
47 49 51 52 53 54 54 55 54 53 53 53 52 52 53 54 55 55 56 60 61 62 62 61 60 60 60 59 58 56 54 53 52 52 51 50 50 49 48 47 47 46 46 48 49 48 48 49 49 49 49 47 46 48 50 51 52 53 53 54 54 54 54 54 54 55 56 59 62 61 58 59 57 53 56 58 57 57 57 57 57 56 57 55 54 55 54 52
46 48 50 52 53 53 53 53 52 50 50 50 49 49 50 51 53 54 58 61 62 62 61 60 60 61 60 59 58 57 56 54 53 51 50 49 49 48 47 46 46 46 47 48 49 48 48 49 50 51 50 48 48 49 50 51 52 53 53 54 54 56 56 56 57 56 57 62 62 59 55 55 57 57 57 58 59 60 59 59 59 58 58 59 58 59 60 58
47 48 48 49 51 52 52 51 50 50 50 50 50 50 51 52 53 57 61 62 60 60 59 58 59 59 58 58 57 56 55 53 52 51 49 49 48 48 47 47 48 49 50 51 50 50 50 51 52 51 51 51 52 52 53 53 53 53 54 55 55 57 58 60 61 60 61 63 60 56 54 54 59 62 61 61 61 62 62 62 64 62 61 61 59 60 61 61
52 52 51 50 50 50 50 50 50 51 51 51 52 52 52 54 55 58 60 59 58 59 57 57 58 58 58 57 56 55 54 53 53 52 52 52 52 51 50 50 51 52 54 54 53 54 55 55 55 55 54 53 54 55 55 55 55 55 55 56 57 58 60 62 64 62 63 63 58 56 57 58 64 65 63 63 62 60 59 61 63 63 61 62 61 61 62 62
56 56 56 55 55 53 53 52 52 53 53 53 53 53 53 55 56 57 56 54 55 56 55 56 57 58 58 57 56 56 56 56 56 55 56 56 56 55 54 54 53 54 57 58 58 60 61 60 59 58 57 56 56 56 55 55 55 55 55 55 57 58 61 63 63 62 64 63 60 60 62 65 69 67 63 61 60 59 59 59 60 61 62 64 64 63 63 62
62 61 60 59 59 59 59 59 58 57 56 56 55 54 56 58 59 57 54 54 55 56 55 56 57 58 59 59 60 60 60 60 60 59 60 61 61 60 59 58 57 57 58 60 62 64 65 66 64 61 60 59 58 56 56 56 56 56 56 57 59 59 60 62 62 62 64 64 64 65 68 71 70 67 65 63 62 62 63 62 63 64 65 65 65 63 62 60
65 65 64 62 61 62 63 64 64 62 61 59 57 58 61 63 61 60 58 57 58 59 58 58 58 60 61 62 63 63 64 64 65 64 64 64 64 64 63 62 61 60 60 61 63 63 65 67 67 65 64 62 61 61 61 61 61 62 62 63 65 63 62 64 65 66 67 68 71 73 74 75 72 69 67 65 65 65 66 67 67 66 64 61 60 60 59 58
65 65 65 63 62 62 63 64 64 63 62 61 60 64 68 67 65 64 63 61 60 60 60 60 60 62 63 64 65 66 67 67 68 67 68 68 68 67 66 64 63 61 61 62 62 63 66 68 67 67 67 67 66 66 67 67 67 69 70 70 70 68 67 69 70 70 69 70 73 75 76 76 75 74 72 68 68 68 67 68 66 63 61 59 59 60 60 61
65 64 64 63 62 62 63 63 63 63 62 61 63 67 69 68 66 65 63 63 62 62 61 62 63 63 64 66 66 67 68 69 69 69 69 70 70 71 69 67 66 65 63 63 64 65 66 67 67 67 69 69 69 68 68 68 69 69 69 68 68 67 68 67 68 68 66 68 70 70 71 71 71 76 77 72 69 67 65 64 63 62 62 63 63 63 64 66
65 65 64 63 62 62 62 63 64 64 63 64 66 68 68 67 65 63 62 63 62 63 64 64 66 66 66 66 67 67 68 70 71 71 71 71 72 73 71 69 69 69 67 65 63 63 64 66 67 68 68 68 67 67 67 66 65 63 62 62 62 63 63 61 62 64 65 67 69 68 67 66 65 70 74 72 70 69 64 62 63 64 65 66 67 67 68 69
67 66 65 64 63 62 62 63 64 65 66 68 69 69 68 67 66 65 64 63 62 63 65 66 67 68 69 69 68 68 68 69 70 70 71 73 74 73 71 69 69 69 67 64 61 60 60 61 64 64 63 63 63 64 64 61 58 55 54 55 56 57 59 59 62 64 66 68 68 67 67 65 62 62 63 64 68 68 66 65 65 64 66 69 71 73 72 70
67 67 66 66 65 64 64 64 65 66 68 69 69 69 69 68 67 66 65 65 64 65 66 66 65 66 68 68 68 69 69 69 69 70 70 72 72 71 69 68 68 65 62 59 57 56 55 57 60 60 61 64 65 64 61 57 52 50 51 54 56 58 59 60 62 62 63 65 65 65 67 65 60 57 57 59 62 63 65 68 69 70 72 74 74 73 69 67
67 67 66 66 65 65 65 66 67 68 69 69 68 68 67 66 66 66 66 66 66 66 66 66 66 67 67 67 67 67 67 68 69 69 70 71 71 70 68 67 66 64 62 61 60 59 59 62 64 65 66 69 69 64 61 58 54 52 52 54 55 55 55 56 59 58 58 62 64 68 74 72 64 60 58 59 62 65 67 71 75 79 79 77 73 71 70 70
64 65 65 65 65 65 66 67 67 67 68 68 67 65 65 65 64 65 66 66 67 67 67 67 67 68 67 67 67 66 66 67 68 69 70 70 69 69 68 68 67 67 67 68 67 67 67 69 72 72 71 71 69 65 64 64 62 60 59 56 55 55 55 58 63 63 64 69 72 76 83 81 71 66 65 66 69 73 76 78 80 81 80 78 77 77 77 77
62 63 63 63 64 65 66 66 66 66 67 65 64 64 65 65 65 64 65 66 67 67 66 66 66 66 66 65 65 65 66 67 69 69 69 69 69 69 69 69 70 70 70 70 71 70 68 69 70 71 71 71 70 68 67 67 68 69 69 67 66 68 68 70 74 76 78 82 83 85 87 85 79 76 75 75 76 79 80 79 79 79 79 79 80 80 80 80
64 64 65 64 65 66 66 66 64 65 65 63 63 64 64 64 64 63 64 65 66 66 66 66 65 64 64 64 65 65 66 68 70 69 68 69 69 69 70 70 70 69 69 70 69 68 67 66 67 70 72 73 72 70 68 68 68 70 71 72 74 76 78 79 81 82 84 84 82 81 80 80 79 77 74 73 73 76 77 76 76 78 78 79 78 78 77 78
66 66 67 67 67 68 68 67 66 65 65 64 64 64 63 64 63 62 63 64 65 65 66 66 65 65 65 65 66 67 67 68 69 69 69 69 68 68 68 69 68 68 68 68 68 68 69 69 69 70 72 73 73 72 71 70 71 71 72 72 73 75 77 79 81 82 84 83 79 76 77 77 77 75 73 72 71 71 72 72 72 73 72 72 71 69 69 69
67 67 67 67 68 68 68 68 68 67 66 65 65 64 63 64 63 62 63 64 64 65 65 66 65 65 66 66 67 67 67 67 67 68 69 69 67 67 68 68 67 67 66 66 66 67 67 68 69 69 68 69 70 70 70 71 73 73 73 73 73 73 74 76 79 80 82 81 79 78 80 80 78 76 75 74 71 69 69 67 65 63 61 60 61 61 61 62
67 67 67 66 67 67 66 66 66 66 65 65 66 66 64 63 63 63 63 64 64 64 65 66 66 66 67 67 67 67 67 67 67 68 68 68 67 67 67 67 67 67 66 66 66 66 67 69 70 69 69 68 68 70 71 73 74 74 74 74 73 73 73 75 78 79 77 78 80 79 78 79 78 76 76 75 74 74 74 71 68 66 64 63 64 64 64 63
66 66 65 65 65 64 64 65 64 64 64 65 66 67 65 64 64 63 63 63 64 64 64 66 66 65 66 66 66 67 67 67 67 67 67 67 67 66 66 66 66 67 66 66 67 67 69 71 71 70 71 71 71 72 72 73 73 73 74 74 73 73 74 75 77 76 75 78 80 78 76 77 77 76 76 76 75 75 75 75 74 75 75 75 75 75 74 73
63 63 63 63 63 62 62 62 63 63 63 63 64 65 63 63 62 62 62 63 64 63 63 64 65 65 65 64 65 66 66 66 66 66 66 66 66 66 66 66 66 66 66 66 67 68 71 72 72 72 74 74 72 71 70 71 72 72 73 74 74 74 74 75 76 75 76 78 78 77 77 77 77 76 75 74 73 73 74 74 74 75 76 77 78 79 80 80
60 60 60 61 61 60 60 60 60 61 60 60 62 61 60 61 61 61 62 63 64 62 62 63 64 64 63 63 64 65 65 64 65 64 64 64 65 66 66 67 67 67 67 67 67 68 70 71 71 71 73 73 71 70 69 70 71 73 74 74 74 75 75 75 75 75 74 75 74 73 74 75 74 74 74 74 74 73 73 74 74 74 75 75 76 77 77 77
58 58 58 58 59 58 58 58 58 59 58 58 59 59 58 59 60 61 61 62 63 63 62 63 64 64 64 64 63 64 64 64 64 64 64 64 65 66 67 67 68 68 68 66 65 65 66 68 68 68 70 72 69 68 70 70 72 75 76 74 73 73 74 74 73 70 69 70 70 70 70 71 72 73 74 75 76 75 74 74 73 73 72 73 74 75 76 77
56 56 56 56 56 56 56 56 56 56 56 56 56 57 57 57 58 59 60 61 61 62 62 62 63 64 64 65 64 65 65 66 66 65 65 65 65 65 66 66 67 67 68 67 67 67 66 68 68 67 70 71 67 67 70 72 75 78 76 73 72 72 72 72 71 69 70 72 73 74 74 76 77 78 79 81 82 82 81 80 78 77 77 77 78 79 81 82
Wind_Direction
261 261 262 263 263 263 264 264 265 267 268 269 271 273 274 276 277 279 280 282 283 285 286 287 287 286 287 287 288 290 291 292 291 289 289 287 284 284 285 285 286 287 289 292 294 296 298 300 302 303 304 305 306 307 308 307 308 310 312 315 311 304 307 309 306 305 307 307 306 303 301 300 295 295 296 294 290 285 283 282 280 278 278 279 277 277 280 282
262 263 264 265 266 266 267 267 268 269 269 270 272 273 274 275 276 278 279 280 281 282 283 283 283 283 284 285 287 289 291 292 291 291 291 290 287 286 287 287 288 288 289 291 292 294 296 298 300 301 301 302 304 304 305 305 305 308 309 312 305 301 308 307 304 305 308 309 308 305 303 300 295 295 295 291 287 284 283 280 279 278 276 278 279 279 276 276
261 262 263 264 265 266 267 268 269 269 270 271 272 272 273 274 275 276 277 278 280 280 281 282 283 283 284 285 288 289 291 292 292 292 292 291 289 288 288 289 289 290 290 291 292 294 295 296 298 299 299 301 302 303 304 303 303 306 307 306 300 300 307 306 303 306 308 308 308 304 302 301 298 298 295 290 287 284 283 279 278 278 275 278 282 281 273 267
260 260 261 262 263 264 265 266 267 268 269 270 271 272 273 274 275 275 276 278 278 280 281 282 284 284 285 287 288 290 292 292 292 291 291 291 290 290 290 290 290 291 291 292 293 294 294 295 296 297 298 300 301 302 302 301 302 304 304 302 298 299 306 305 303 305 306 306 306 301 300 301 299 299 297 294 294 289 284 280 279 278 276 279 282 281 274 263
260 261 261 262 262 263 264 265 266 267 268 270 271 272 273 274 275 276 277 278 279 280 281 282 283 284 285 287 288 290 291 292 291 289 290 290 290 290 290 290 291 291 291 291 292 293 294 294 295 295 296 298 300 301 301 300 300 302 302 301 298 299 305 305 301 304 304 304 304 300 299 300 298 297 295 299 303 295 286 282 280 278 279 281 282 281 277 267
261 262 263 263 264 265 265 266 267 268 269 269 271 272 273 274 275 276 277 278 279 279 280 281 282 283 284 285 287 288 291 292 288 286 288 288 288 289 289 289 289 289 290 291 292 292 293 294 294 294 296 298 299 300 299 298 298 300 302 300 298 300 305 302 299 302 302 302 302 298 298 299 296 293 296 307 310 299 287 281 278 276 278 282 282 281 280 275
262 263 264 264 265 266 266 267 268 268 269 270 270 271 272 273 274 275 276 277 278 278 279 280 280 282 282 283 285 286 290 289 284 284 285 286 287 288 288 288 288 289 290 291 292 292 293 293 293 294 296 297 297 297 296 296 296 299 300 297 297 300 302 299 299 301 300 299 299 296 297 298 295 294 305 323 315 297 285 277 275 275 279 285 284 282 284 282
263 263 264 265 265 266 267 267 268 269 269 270 270 270 271 272 273 274 275 276 276 277 277 278 279 279 280 281 282 285 288 283 280 283 285 285 286 286 286 287 288 289 290 291 292 292 292 292 292 293 294 294 295 296 295 294 296 297 297 295 296 299 299 298 300 300 298 297 296 294 295 294 293 298 317 335 311 291 282 277 277 280 284 289 288 288 289 288
263 264 265 265 266 266 267 268 268 269 270 270 270 271 271 272 273 273 274 275 275 275 276 276 277 277 278 279 279 285 284 277 278 283 285 285 284 283 284 285 286 289 290 291 291 291 291 291 292 292 293 293 294 294 294 294 296 296 295 295 297 297 297 298 299 298 295 295 294 292 292 290 292 301 324 327 298 286 282 283 283 284 288 291 291 292 292 293
263 264 265 265 266 267 268 268 269 270 270 270 271 271 272 272 273 273 274 274 274 275 275 276 276 276 277 277 280 284 276 273 279 283 283 283 282 282 283 284 286 288 289 290 290 291 291 291 291 291 292 293 293 293 293 295 296 296 295 295 296 295 295 297 297 296 292 291 291 290 290 290 293 301 321 311 288 280 280 282 283 284 287 289 291 293 293 295
264 264 265 266 266 267 268 268 269 269 270 270 270 271 271 272 272 273 273 273 274 274 275 275 275 276 275 276 281 279 270 274 281 282 281 281 280 282 283 285 287 287 288 289 289 290 290 290 291 291 291 292 293 294 294 296 296 295 294 294 295 294 295 297 295 291 288 289 291 291 291 292 294 300 310 298 283 280 281 281 282 285 287 287 289 292 293 295
264 265 265 266 266 267 268 268 268 269 269 269 270 270 270 271 271 271 272 272 273 274 274 274 274 274 274 275 278 273 272 276 279 280 280 279 280 283 285 286 287 287 288 288 289 289 289 289 289 290 291 292 293 294 294 295 294 294 294 293 295 293 295 298 291 286 288 292 295 293 291 292 295 297 299 290 283 284 285 284 284 286 287 287 287 289 292 294
264 265 265 266 266 267 267 268 268 268 269 269 270 270 270 270 270 270 271 272 272 273 273 273 274 274 273 274 275 273 275 277 277 278 278 278 281 284 284 285 286 287 288 287 288 287 287 288 289 289 290 292 293 293 294 293 292 293 293 293 295 293 292 290 284 286 293 296 296 292 290 292 294 294 293 288 286 288 288 289 289 290 289 288 287 288 289 291
264 264 265 265 266 266 267 267 267 268 268 268 269 270 270 270 270 271 271 272 272 273 273 274 274 274 274 275 275 274 275 275 275 275 276 279 282 282 283 285 285 286 286 287 287 287 288 289 289 289 290 291 292 292 293 292 291 292 293 293 295 291 287 283 283 290 296 294 292 290 288 291 293 292 291 288 288 290 290 292 295 297 295 292 291 289 288 288
264 264 265 265 266 266 267 267 268 268 268 269 269 270 270 271 271 272 272 273 273 273 274 274 275 275 275 276 276 274 274 273 273 274 276 279 280 282 283 284 285 285 285 286 286 287 288 288 288 289 289 290 291 292 293 291 291 295 294 292 291 288 288 287 288 293 294 291 289 287 286 288 291 292 290 287 287 288 290 294 297 298 296 293 291 289 287 286
264 265 265 266 266 267 267 268 268 269 269 270 270 271 271 272 272 272 272 273 273 274 274 275 276 276 276 277 276 275 274 273 273 274 275 276 278 281 282 283 284 284 285 286 286 287 288 287 287 288 288 289 291 294 293 291 292 295 292 289 289 289 292 294 293 294 294 291 287 285 285 288 292 292 290 288 287 288 291 295 295 292 289 287 286 284 284 283
264 265 266 266 267 267 267 268 268 269 269 270 270 271 271 271 272 272 272 273 273 274 274 275 276 276 277 278 277 276 275 273 273 273 273 275 277 279 280 281 282 283 284 286 286 288 287 287 287 286 286 288 292 294 291 289 292 291 287 288 289 291 294 295 298 299 294 289 286 285 285 288 291 290 289 290 290 291 293 293 290 287 285 283 281 281 282 283
264 265 266 266 267 267 268 268 269 269 269 270 270 270 271 271 271 272 272 272 273 273 274 275 275 275 276 277 277 276 274 273 272 272 273 274 276 277 279 279 280 282 283 285 286 287 287 286 285 284 286 290 294 292 287 287 288 288 287 289 290 292 293 295 300 301 294 287 286 286 287 289 289 289 290 292 292 291 290 290 288 286 283 282 281 283 285 286
264 265 266 267 267 268 268 268 269 269 269 269 269 270 270 270 271 271 272 272 273 273 274 274 274 275 276 277 277 275 273 272 272 272 273 275 276 277 277 278 279 280 281 284 285 285 284 284 283 284 289 293 292 286 283 285 287 287 288 289 290 290 291 294 298 297 293 287 284 286 288 289 290 291 292 293 291 290 290 289 288 287 285 284 285 285 286 286
266 266 266 267 268 268 269 269 269 269 269 269 270 270 270 270 271 271 271 272 273 273 273 274 275 274 276 278 277 275 274 273 273 273 274 275 275 275 276 277 278 279 280 282 282 281 282 283 283 287 292 290 284 281 283 285 286 287 287 288 289 289 290 293 293 292 291 286 284 287 287 287 289 291 292 292 290 290 291 289 287 287 288 287 286 284 283 282
266 266 267 268 268 269 269 270 270 270 270 270 270 271 271 271 271 271 271 271 272 274 274 275 276 276 277 277 276 276 276 275 275 276 276 275 274 275 276 276 277 278 279 279 278 280 282 282 284 289 288 283 280 282 284 284 284 285 286 287 288 289 290 291 289 289 288 284 286 289 286 285 287 288 289 289 287 289 290 289 288 288 289 289 287 284 281 278
265 266 267 267 268 268 269 269 269 270 270 270 270 271 272 272 272 272 272 270 270 272 275 275 276 277 278 277 277 277 277 278 279 279 278 277 276 276 275 275 276 276 276 276 278 281 280 280 284 286 282 281 282 283 283 282 283 284 286 287 287 289 289 287 286 287 285 284 286 287 286 286 287 287 286 284 285 287 288 288 290 291 290 289 289 286 283 281
265 266 266 267 268 268 269 269 269 270 270 270 270 270 271 272 272 273 273 272 269 269 272 274 276 276 277 277 277 278 279 281 281 281 280 279 278 277 276 276 276 275 275 277 280 280 278 280 282 282 280 282 282 281 281 281 282 283 285 285 286 288 288 285 285 287 286 285 286 287 287 286 286 285 282 281 283 284 283 283 287 291 291 289 289 287 286 287
263 264 265 266 267 268 268 269 269 269 269 269 270 270 270 271 272 273 273 273 272 271 271 272 273 275 276 276 277 279 280 282 282 282 281 280 279 278 277 277 276 276 277 279 278 277 277 279 281 280 280 280 279 279 280 279 281 283 283 283 284 286 285 284 287 288 286 286 288 288 285 282 284 284 282 282 282 281 278 277 280 286 287 287 286 286 287 287
262 263 263 263 264 265 266 267 268 268 268 269 269 270 271 271 272 273 273 273 273 274 273 271 269 270 273 275 277 278 280 281 281 282 281 280 280 280 279 279 279 280 280 279 277 276 277 278 280 281 279 278 277 278 278 278 280 280 279 280 282 283 282 283 286 287 286 287 288 288 283 278 279 281 282 284 284 281 277 275 278 282 282 282 284 285 286 286
261 261 261 262 262 263 264 265 267 267 268 268 269 270 271 271 272 272 273 273 273 274 275 273 270 269 270 273 276 278 279 280 279 279 279 280 280 280 280 280 281 281 280 279 278 278 279 280 281 280 280 279 278 277 277 278 279 278 278 279 280 280 281 283 285 285 285 285 285 285 283 278 275 278 280 283 285 282 279 278 280 283 282 280 281 283 286 289
263 262 262 263 263 263 264 266 267 268 269 269 269 270 271 271 272 273 273 273 272 274 275 275 275 275 275 275 275 276 278 279 279 279 279 280 280 281 281 281 281 281 280 280 280 281 283 283 281 280 280 279 279 279 277 276 277 278 279 279 278 278 279 280 282 283 283 283 281 281 282 280 278 279 281 282 282 282 283 283 284 286 284 282 279 277 279 284
266 265 265 266 266 265 265 266 268 268 268 268 269 270 271 271 272 272 272 272 273 273 275 276 279 281 281 281 280 279 279 279 279 279 279 280 281 281 281 281 280 280 280 280 281 282 283 281 281 281 279 279 280 279 276 275 276 279 279 279 279 278 278 279 279 280 281 280 277 276 280 283 280 279 283 283 282 283 284 287 289 290 289 289 289 285 282 283
265 265 266 266 266 265 265 265 266 267 268 268 269 269 269 268 269 269 270 271 272 272 274 277 280 281 281 282 282 283 282 280 280 280 280 281 281 281 281 281 280 280 280 280 281 282 282 282 282 281 280 280 278 276 275 276 278 279 279 278 278 278 278 278 277 278 278 276 275 276 281 286 281 277 279 280 280 282 282 285 289 290 292 295 296 296 295 296
267 267 267 268 267 267 266 265 265 264 265 265 265 265 264 264 265 266 268 269 271 273 275 277 277 278 279 281 282 282 282 282 281 281 282 282 282 282 282 282 282 282 281 281 281 282 282 282 281 281 281 279 277 276 276 278 278 279 279 278 278 278 277 277 276 276 275 274 276 280 284 286 282 276 276 277 279 281 282 285 288 290 292 294 294 295 295 298
266 267 268 268 268 269 269 268 266 264 262 261 261 261 262 263 263 265 268 270 272 272 274 275 276 278 278 279 279 280 281 282 282 282 282 281 280 280 280 280 281 280 280 280 281 281 280 280 280 280 279 279 278 278 278 277 278 278 278 278 277 276 276 276 275 275 274 275 279 282 282 281 278 276 278 279 279 281 285 289 290 290 292 292 293 293 293 293
264 266 267 267 267 267 267 266 265 264 263 262 261 262 263 263 263 265 268 270 271 272 274 275 277 278 278 278 278 278 279 280 281 282 282 281 281 281 281 281 281 280 279 280 280 279 279 279 280 280 279 279 279 278 278 278 278 277 276 276 275 275 275 274 274 274 274 276 278 278 278 276 273 274 277 279 281 284 286 287 288 290 292 291 291 292 292 290
266 267 267 267 267 268 267 266 265 265 264 263 262 262 262 262 264 266 267 268 270 273 274 275 276 276 276 277 277 278 279 280 281 282 282 282 282 282 282 282 282 283 282 282 281 281 280 279 280 281 280 280 280 280 281 280 279 277 276 276 274 274 274 273 274 275 275 275 275 274 274 271 270 272 275 278 280 282 283 283 285 288 289 289 288 288 287 287
270 271 270 268 267 269 270 270 271 271 271 269 267 266 265 263 265 267 268 268 270 272 272 273 274 275 275 276 276 277 279 279 280 281 282 282 282 282 282 282 282 282 282 282 282 282 282 281 281 281 280 280 281 281 280 279 278 277 276 275 274 274 275 276 277 277 277 277 275 273 271 270 270 271 272 274 275 277 279 282 284 286 286 285 285 284 284 284
270 271 272 271 270 270 270 271 273 275 275 274 273 272 270 268 270 272 272 272 272 273 274 274 274 275 275 275 275 276 277 279 280 281 281 281 281 281 281 281 282 282 282 282 282 281 281 281 283 283 281 281 280 278 277 277 276 276 275 274 275 276 277 277 277 277 277 276 274 273 273 273 273 271 271 271 271 273 277 281 283 284 283 282 281 282 283 284
270 270 271 272 272 271 271 271 272 273 273 274 273 272 272 272 274 275 275 276 276 278 278 277 276 276 275 275 275 275 276 278 279 279 280 281 281 281 281 282 282 281 281 280 280 280 280 281 283 283 282 281 280 279 278 278 278 277 277 276 277 277 277 276 277 277 276 274 273 274 274 275 275 273 272 272 272 273 276 279 279 278 278 279 279 280 282 283
273 273 272 272 273 273 272 272 273 273 273 273 273 273 272 273 275 277 279 280 281 281 281 280 278 277 277 276 276 277 277 278 278 279 279 280 280 281 282 283 282 281 281 280 280 280 280 281 281 280 280 280 280 280 280 280 280 280 280 280 280 279 278 278 277 277 275 273 274 275 276 276 276 275 275 275 275 275 275 274 273 272 273 275 277 278 280 280
274 275 275 274 274 274 274 274 274 274 275 274 274 274 274 275 277 279 281 281 281 282 282 281 281 280 280 280 279 279 279 279 280 280 280 280 280 281 282 282 281 281 282 282 282 283 283 283 280 278 278 279 278 279 279 279 280 282 283 283 282 281 280 279 276 276 274 273 273 274 273 271 272 276 280 279 277 277 274 268 266 268 270 273 274 275 276 277
273 273 274 274 274 274 274 274 273 273 273 274 275 276 276 277 278 279 280 281 281 281 280 280 281 281 281 281 282 282 281 281 280 280 281 281 281 282 282 282 282 283 284 284 285 286 285 284 282 280 279 279 278 279 281 282 284 285 283 281 279 278 277 276 274 273 272 271 270 270 268 266 268 273 277 278 278 277 273 268 266 267 271 274 276 276 275 273
272 272 273 273 274 274 274 274 273 273 273 274 275 276 276 277 278 279 280 280 280 279 279 279 279 279 279 280 280 281 281 281 281 281 281 281 281 281 281 281 282 283 283 282 283 282 281 281 281 280 279 278 280 283 285 285 285 283 278 274 272 272 272 272 270 270 270 269 268 269 269 267 266 266 267 270 271 269 267 268 270 273 276 277 278 276 274 272
271 272 273 273 272 272 272 272 273 273 274 275 276 277 276 276 277 277 277 277 277 277 277 277 277 277 278 278 278 278 278 278 279 279 279 279 280 280 279 279 279 279 278 277 275 274 274 274 274 275 276 278 281 283 281 279 278 277 273 269 268 269 270 270 269 268 267 266 267 271 273 272 269 266 264 265 264 263 265 269 273 276 278 279 278 276 274 273
271 271 271 272 271 271 271 271 272 273 273 275 276 277 276 276 275 275 275 275 274 274 275 275 275 276 276 276 277 276 276 276 276 276 277 277 278 278 278 277 277 276 276 275 274 274 273 272 272 274 275 276 277 276 274 272 271 270 269 267 266 266 266 267 268 269 268 268 269 273 277 277 275 271 269 270 271 271 272 273 275 276 278 278 278 278 277 277
271 271 270 270 270 270 270 271 272 273 273 274 274 273 273 273 274 274 275 275 274 274 274 274 274 275 275 275 275 275 275 275 275 275 276 276 276 276 276 276 275 275 275 275 276 276 275 275 275 276 275 274 274 274 272 271 269 268 266 265 265 265 266 267 269 271 272 272 273 275 277 277 276 275 275 276 277 276 276 277 277 277 277 277 277 277 277 277
270 270 270 271 271 271 271 272 272 272 272 273 272 271 272 272 273 274 274 274 274 274 274 274 274 275 275 275 274 274 274 274 275 275 275 275 275 275 275 275 275 275 275 275 276 276 276 276 277 277 277 276 276 275 274 272 270 268 267 265 265 265 266 267 269 271 272 273 274 274 275 275 276 277 277 277 277 277 277 277 277 277 277 277 277 276 275 275
269 270 270 270 270 271 272 273 272 272 273 273 272 273 273 273 274 274 273 273 273 273 274 274 274 274 274 274 274 274 274 274 275 276 275 275 275 275 275 275 275 276 275 275 275 276 276 275 275 275 276 277 277 276 275 273 271 269 268 267 266 266 267 268 269 270 270 271 271 271 273 274 274 274 274 275 276 277 277 277 277 277 277 277 276 274 272 272
269 269 270 270 270 271 272 273 273 273 273 274 273 273 274 274 275 274 273 273 273 273 274 275 275 275 274 274 275 275 275 274 274 275 275 276 276 276 276 276 277 277 276 276 276 276 275 275 274 274 275 276 277 277 276 275 274 272 271 270 269 269 269 270 270 270 271 272 271 271 274 275 275 274 273 273 273 273 273 273 274 274 274 273 272 270 269 268
269 269 270 270 271 271 272 272 273 274 274 274 274 274 274 275 275 274 274 274 274 274 274 275 275 275 275 276 276 275 275 275 274 275 276 276 276 276 276 276 276 276 275 275 275 275 274 273 274 275 274 274 275 275 276 276 275 274 274 273 272 272 271 271 271 272 273 274 274 275 276 277 277 276 275 273 272 271 271 270 270 269 268 267 267 267 268 268
269 269 270 270 271 271 272 272 273 273 274 274 274 274 275 275 275 275 275 274 274 274 274 274 274 274 274 275 275 275 275 275 275 275 276 276 276 275 275 275 275 274 274 274 274 274 273 273 274 274 273 273 273 274 275 276 275 275 275 275 274 273 272 272 272 273 274 275 277 278 277 276 276 276 274 274 273 272 271 270 269 268 267 266 265 264 265 266
269 269 270 270 270 271 271 271 272 272 273 274 274 275 276 275 275 275 275 274 274 274 274 274 274 274 274 274 274 274 274 274 275 275 274 275 275 274 274 274 273 273 273 273 274 274 273 274 275 275 274 274 274 274 274 274 273 273 273 273 273 274 274 274 273 274 274 275 276 278 277 277 278 278 278 278 276 275 274 273 272 270 268 267 265 264 265 265
269 269 269 270 270 271 271 272 272 273 273 273 274 275 275 274 274 274 274 275 275 274 274 274 274 274 274 274 274 274 274 274 274 274 273 273 273 273 273 273 273 273 273 273 273 273 274 275 275 275 274 274 274 275 274 273 272 272 271 272 274 276 277 277 277 277 276 276 277 278 278 279 280 280 280 278 276 274 273 273 272 270 268 266 265 265 265 265
269 269 269 270 270 270 271 272 272 272 273 273 274 275 275 274 274 274 274 274 274 274 274 274 275 275 275 274 274 274 274 274 274 274 274 273 273 273 273 274 274 274 274 274 274 273 273 274 275 274 273 272 274 275 274 273 272 271 272 276 278 279 279 279 278 278 277 277 277 276 275 275 275 274 273 272 271 270 269 269 268 267 266 265 265 266 266 266
269 269 269 269 269 270 271 271 271 272 273 273 274 274 275 275 275 275 275 274 275 275 276 276 276 276 276 276 276 275 275 275 275 275 275 275 274 274 274 274 274 275 275 275 274 273 272 272 273 272 271 271 272 272 272 272 271 271 274 278 279 278 277 277 276 275 274 275 274 273 272 271 271 271 271 272 272 273 274 274 273 271 270 269 269 269 269 270
Height
5880 5880 5881 5881 5881 5881 5882 5882 5882 5882 5882 5882 5883 5883 5883 5883 5883 5883 5883 5883 5883 5883 5883 5883 5883 5883 5883 5883 5883 5883 5883 5883 5883 5883 5883 5883 5883 5882 5882 5882 5882 5881 5881 5881 5880 5880 5879 5878 5878 5877 5877 5876 5876 5875 5875 5874 5873 5873 5873 5873 5871 5869 5869 5867 5866 5866 5867 5866 5865 5864 5864 5864 5863 5862 5862 5861 5860 5859 5859 5858 5857 5858 5857 5857 5857 5858 5859 5858
5877 5877 5878 5878 5879 5879 5879 5879 5880 5880 5880 5880 5880 5880 5880 5881 5881 5881 5881 5881 5881 5881 5881 5881 5881 5881 5881 5881 5881 5881 5881 5881 5880 5881 5881 5881 5881 5880 5880 5880 5880 5879 5879 5878 5878 5877 5877 5876 5875 5875 5874 5873 5873 5873 5872 5871 5871 5871 5871 5871 5869 5866 5867 5865 5863 5863 5864 5864 5863 5862 5861 5861 5861 5860 5860 5859 5858 5857 5857 5855 5854 5856 5855 5854 5855 5856 5857 5856
5874 5875 5875 5875 5876 5876 5877 5877 5877 5877 5877 5877 5878 5878 5878 5878 5878 5878 5878 5878 5879 5879 5879 5879 5879 5879 5879 5879 5879 5880 5879 5879 5878 5878 5879 5879 5878 5878 5878 5878 5877 5877 5876 5876 5875 5875 5874 5873 5873 5872 5871 5871 5870 5870 5869 5868 5868 5869 5868 5868 5867 5865 5865 5863 5860 5860 5860 5862 5862 5860 5859 5859 5858 5857 5857 5856 5856 5855 5854 5853 5852 5853 5853 5852 5852 5854 5854 5854
5872 5872 5873 5873 5873 5873 5874 5874 5874 5875 5875 5875 5875 5875 5875 5875 5876 5876 5876 5876 5876 5876 5876 5876 5877 5877 5877 5877 5877 5877 5877 5877 5876 5875 5876 5876 5876 5875 5875 5875 5874 5874 5873 5873 5873 5872 5871 5870 5870 5869 5868 5868 5868 5867 5866 5865 5865 5866 5866 5865 5864 5863 5864 5861 5858 5858 5857 5858 5859 5857 5857 5857 5856 5854 5854 5853 5853 5853 5852 5850 5849 5850 5850 5850 5850 5851 5851 5851
5869 5869 5870 5870 5871 5871 5871 5871 5872 5872 5872 5873 5872 5873 5873 5873 5873 5873 5873 5873 5873 5874 5874 5874 5874 5874 5874 5874 5875 5875 5875 5874 5873 5872 5873 5873 5873 5873 5872 5872 5871 5871 5870 5870 5869 5869 5868 5867 5867 5866 5865 5865 5865 5864 5863 5862 5861 5863 5864 5862 5861 5861 5862 5860 5856 5855 5854 5854 5854 5854 5854 5855 5854 5852 5851 5850 5850 5851 5849 5847 5846 5846 5847 5847 5848 5848 5848 5848
5866 5867 5867 5867 5868 5868 5869 5869 5869 5869 5870 5870 5870 5870 5870 5870 5870 5870 5870 5870 5871 5871 5871 5871 5871 5871 5872 5872 5872 5872 5873 5871 5869 5869 5870 5870 5869 5869 5869 5869 5868 5868 5867 5867 5866 5866 5865 5864 5863 5862 5863 5863 5862 5862 5860 5859 5858 5860 5861 5860 5858 5858 5860 5858 5854 5853 5851 5850 5850 5849 5850 5852 5851 5849 5850 5849 5848 5848 5846 5843 5843 5844 5844 5845 5846 5845 5845 5846
5863 5864 5864 5865 5865 5865 5865 5866 5866 5866 5867 5867 5867 5867 5867 5867 5867 5868 5867 5867 5868 5867 5868 5868 5868 5868 5868 5869 5869 5870 5871 5868 5863 5865 5867 5866 5866 5866 5865 5865 5865 5864 5864 5863 5863 5862 5862 5861 5860 5859 5860 5860 5860 5859 5857 5856 5856 5856 5858 5857 5855 5855 5856 5855 5853 5851 5849 5847 5846 5844 5845 5848 5846 5845 5848 5848 5846 5844 5842 5840 5840 5841 5842 5843 5843 5843 5843 5843
5860 5860 5860 5861 5861 5862 5862 5862 5863 5863 5863 5863 5863 5864 5864 5864 5864 5864 5864 5864 5864 5864 5864 5864 5865 5865 5865 5866 5866 5868 5869 5864 5859 5861 5863 5863 5863 5862 5862 5862 5861 5861 5861 5861 5860 5859 5859 5858 5857 5856 5857 5857 5857 5857 5855 5853 5853 5853 5853 5853 5853 5853 5852 5851 5850 5849 5846 5845 5843 5840 5841 5843 5842 5841 5846 5847 5844 5840 5838 5838 5838 5838 5840 5840 5841 5841 5841 5840
5855 5856 5857 5857 5857 5858 5858 5858 5859 5859 5859 5859 5859 5860 5860 5860 5861 5861 5860 5860 5860 5860 5860 5860 5861 5861 5861 5863 5863 5866 5865 5859 5857 5859 5859 5859 5859 5859 5859 5859 5858 5858 5858 5858 5857 5856 5855 5854 5854 5853 5853 5853 5854 5853 5852 5850 5851 5850 5849 5849 5850 5849 5849 5848 5847 5846 5842 5841 5839 5835 5836 5839 5838 5838 5843 5845 5841 5836 5834 5835 5835 5835 5836 5837 5837 5837 5837 5838
5851 5852 5852 5853 5853 5854 5854 5855 5855 5855 5855 5855 5855 5856 5856 5857 5857 5857 5856 5856 5855 5856 5856 5856 5857 5857 5858 5859 5861 5864 5860 5855 5856 5857 5855 5855 5855 5856 5856 5856 5856 5856 5855 5854 5853 5852 5852 5850 5850 5849 5849 5849 5850 5850 5849 5847 5847 5847 5844 5845 5846 5846 5846 5845 5844 5843 5839 5837 5835 5831 5831 5834 5835 5836 5840 5842 5836 5831 5831 5832 5832 5831 5833 5833 5832 5833 5833 5834
5847 5848 5848 5849 5849 5850 5850 5851 5851 5851 5851 5851 5851 5852 5852 5853 5853 5853 5852 5852 5851 5852 5852 5852 5853 5854 5854 5856 5859 5860 5856 5853 5854 5853 5852 5851 5851 5852 5853 5853 5853 5852 5852 5851 5850 5849 5848 5847 5846 5845 5845 5845 5846 5846 5845 5845 5843 5842 5840 5840 5843 5841 5843 5843 5841 5840 5835 5833 5832 5827 5825 5830 5833 5833 5837 5837 5830 5827 5828 5829 5829 5829 5830 5829 5828 5828 5828 5829
5843 5844 5844 5845 5845 5846 5846 5847 5847 5847 5847 5847 5847 5848 5848 5849 5849 5849 5848 5848 5848 5848 5849 5848 5849 5850 5851 5853 5856 5856 5853 5853 5852 5850 5848 5846 5847 5849 5849 5849 5849 5848 5848 5848 5846 5845 5843 5843 5842 5841 5841 5841 5843 5842 5841 5841 5839 5838 5835 5835 5838 5837 5839 5841 5836 5834 5832 5830 5830 5823 5819 5825 5831 5831 5833 5832 5826 5824 5825 5826 5827 5827 5827 5826 5825 5824 5823 5824
5840 5840 5840 5841 5841 5842 5842 5842 5843 5843 5843 5843 5843 5844 5844 5844 5845 5845 5845 5845 5844 5845 5845 5844 5845 5845 5846 5851 5853 5852 5851 5851 5849 5846 5844 5843 5844 5846 5846 5845 5845 5845 5844 5844 5843 5841 5839 5838 5837 5837 5837 5837 5838 5838 5837 5837 5835 5834 5831 5830 5833 5832 5835 5838 5831 5830 5831 5827 5826 5819 5812 5819 5828 5829 5830 5828 5823 5823 5822 5823 5824 5824 5824 5822 5821 5820 5820 5820
5835 5836 5837 5837 5837 5838 5838 5838 5838 5839 5839 5839 5839 5839 5840 5840 5840 5841 5841 5841 5840 5841 5840 5840 5841 5840 5841 5847 5849 5848 5848 5847 5845 5843 5840 5840 5841 5842 5842 5842 5841 5841 5840 5839 5839 5837 5836 5834 5833 5833 5833 5833 5834 5834 5833 5831 5830 5831 5827 5826 5827 5824 5827 5832 5829 5829 5830 5824 5821 5815 5807 5813 5823 5825 5827 5825 5821 5820 5819 5820 5822 5822 5821 5819 5818 5816 5816 5817
5831 5832 5832 5833 5833 5833 5834 5834 5834 5834 5834 5835 5835 5835 5835 5836 5836 5836 5836 5836 5836 5836 5836 5836 5836 5835 5837 5842 5844 5844 5844 5842 5840 5839 5837 5837 5837 5838 5839 5838 5837 5837 5836 5835 5834 5833 5832 5830 5829 5828 5829 5830 5830 5830 5829 5825 5825 5828 5823 5820 5821 5817 5817 5825 5828 5828 5826 5820 5816 5811 5804 5808 5817 5820 5822 5821 5818 5817 5816 5818 5819 5819 5818 5817 5815 5813 5812 5813
5827 5827 5828 5828 5828 5829 5829 5829 5829 5830 5830 5830 5830 5830 5831 5831 5831 5832 5832 5832 5831 5831 5831 5831 5832 5831 5831 5837 5840 5839 5840 5838 5836 5835 5834 5834 5833 5834 5834 5834 5833 5832 5831 5831 5830 5829 5828 5826 5825 5824 5824 5826 5827 5827 5824 5818 5821 5824 5818 5813 5814 5812 5811 5816 5823 5826 5822 5814 5810 5807 5800 5803 5812 5814 5815 5816 5815 5814 5813 5815 5816 5815 5814 5813 5812 5810 5809 5809
5822 5822 5823 5823 5824 5824 5824 5824 5825 5825 5825 5825 5826 5826 5826 5826 5826 5827 5827 5827 5827 5826 5826 5826 5827 5826 5826 5831 5834 5835 5834 5833 5832 5831 5830 5830 5830 5830 5830 5830 5829 5828 5827 5826 5826 5825 5823 5821 5820 5820 5820 5822 5825 5824 5818 5813 5816 5818 5813 5809 5808 5809 5808 5809 5816 5821 5818 5808 5804 5801 5797 5799 5806 5809 5809 5810 5811 5810 5810 5811 5811 5811 5810 5809 5808 5806 5806 5805
5817 5818 5818 5818 5819 5819 5819 5819 5820 5820 5820 5820 5820 5820 5821 5821 5821 5821 5822 5822 5822 5822 5821 5821 5822 5820 5822 5825 5827 5829 5829 5827 5827 5827 5826 5827 5827 5827 5826 5825 5824 5824 5823 5822 5822 5821 5818 5816 5815 5814 5817 5820 5822 5819 5811 5809 5811 5809 5808 5806 5804 5804 5804 5805 5809 5813 5810 5803 5798 5796 5794 5795 5799 5803 5806 5807 5806 5806 5807 5807 5806 5806 5805 5804 5804 5803 5803 5802
5811 5812 5813 5813 5814 5814 5814 5814 5814 5815 5814 5814 5815 5815 5815 5815 5816 5816 5816 5816 5817 5816 5815 5816 5817 5815 5816 5820 5821 5821 5822 5822 5822 5822 5823 5823 5823 5822 5821 5820 5820 5819 5818 5818 5818 5815 5813 5811 5809 5809 5815 5819 5817 5811 5806 5806 5806 5804 5803 5802 5800 5800 5800 5803 5805 5804 5802 5795 5792 5793 5791 5790 5792 5797 5802 5804 5802 5801 5802 5803 5802 5802 5801 5801 5801 5800 5799 5798
5806 5807 5807 5808 5808 5808 5809 5809 5809 5809 5809 5809 5809 5809 5810 5810 5810 5810 5810 5811 5811 5811 5810 5810 5811 5810 5812 5814 5814 5813 5814 5816 5816 5818 5819 5819 5819 5818 5817 5816 5815 5814 5814 5814 5812 5809 5809 5805 5803 5808 5813 5813 5808 5804 5803 5803 5802 5800 5798 5797 5796 5795 5795 5800 5800 5798 5796 5787 5784 5790 5788 5785 5788 5791 5796 5798 5798 5797 5797 5797 5798 5799 5798 5797 5797 5796 5796 5795
5800 5801 5801 5802 5802 5803 5803 5803 5803 5803 5804 5804 5803 5803 5803 5804 5804 5804 5804 5806 5806 5805 5805 5805 5804 5804 5807 5808 5806 5806 5807 5809 5811 5813 5813 5813 5813 5812 5812 5811 5809 5809 5809 5808 5805 5805 5804 5799 5800 5807 5807 5804 5800 5800 5800 5798 5797 5795 5794 5792 5791 5791 5791 5794 5794 5793 5792 5782 5779 5783 5780 5779 5784 5786 5790 5793 5794 5794 5792 5791 5793 5795 5795 5794 5793 5792 5792 5791
5795 5795 5796 5796 5796 5797 5797 5797 5797 5797 5798 5798 5798 5797 5797 5797 5797 5797 5797 5799 5802 5801 5798 5800 5799 5798 5801 5800 5799 5800 5800 5802 5806 5806 5806 5807 5807 5806 5805 5804 5804 5803 5802 5801 5802 5802 5797 5793 5798 5802 5799 5796 5796 5796 5795 5793 5792 5791 5791 5788 5786 5788 5786 5785 5787 5788 5786 5779 5776 5776 5773 5772 5777 5780 5782 5787 5789 5790 5788 5786 5787 5790 5791 5790 5789 5787 5787 5787
5789 5789 5790 5790 5790 5791 5791 5791 5792 5792 5792 5792 5792 5792 5791 5791 5791 5791 5789 5788 5794 5798 5796 5795 5793 5792 5794 5793 5793 5794 5794 5797 5799 5799 5800 5799 5799 5799 5798 5798 5797 5797 5796 5797 5798 5796 5790 5789 5794 5795 5792 5791 5791 5789 5788 5787 5787 5787 5787 5784 5781 5784 5782 5777 5779 5781 5780 5776 5773 5772 5769 5767 5769 5771 5774 5781 5786 5786 5784 5783 5782 5784 5785 5785 5785 5783 5782 5782
5783 5783 5783 5784 5784 5784 5785 5785 5786 5786 5785 5786 5786 5786 5786 5786 5785 5785 5784 5781 5783 5790 5792 5791 5789 5786 5786 5786 5787 5788 5789 5791 5791 5792 5792 5791 5791 5791 5791 5791 5790 5790 5791 5792 5792 5789 5786 5786 5788 5788 5787 5786 5784 5783 5782 5781 5782 5783 5781 5779 5777 5779 5776 5772 5772 5773 5772 5772 5771 5768 5764 5762 5763 5763 5765 5773 5780 5780 5779 5779 5780 5780 5780 5779 5780 5779 5778 5778
5776 5776 5777 5777 5778 5778 5779 5779 5779 5779 5779 5780 5780 5780 5780 5780 5780 5779 5778 5776 5775 5779 5783 5783 5784 5782 5781 5781 5782 5783 5784 5785 5785 5785 5784 5784 5784 5783 5784 5784 5783 5784 5785 5785 5784 5782 5782 5782 5782 5782 5781 5780 5778 5777 5777 5775 5777 5777 5775 5774 5774 5772 5771 5769 5769 5766 5764 5766 5767 5766 5762 5758 5759 5759 5758 5764 5771 5773 5772 5773 5775 5776 5775 5774 5773 5773 5773 5772
5769 5769 5770 5770 5771 5771 5772 5772 5773 5773 5773 5774 5774 5774 5774 5774 5774 5774 5773 5771 5769 5771 5771 5771 5775 5777 5777 5777 5777 5778 5779 5778 5779 5778 5778 5777 5777 5777 5777 5777 5777 5778 5778 5778 5776 5775 5776 5778 5777 5776 5775 5774 5772 5772 5772 5771 5770 5769 5769 5770 5769 5766 5766 5765 5764 5762 5760 5759 5760 5761 5758 5754 5754 5756 5756 5758 5762 5764 5764 5765 5767 5769 5769 5768 5767 5766 5766 5765
5763 5763 5763 5764 5765 5765 5766 5766 5766 5767 5767 5768 5768 5768 5768 5768 5768 5769 5768 5766 5764 5764 5761 5759 5764 5768 5770 5773 5773 5773 5773 5772 5772 5772 5772 5771 5771 5771 5771 5771 5772 5771 5771 5770 5769 5769 5771 5772 5771 5770 5769 5768 5767 5768 5768 5765 5762 5762 5764 5764 5762 5761 5761 5760 5759 5757 5755 5754 5754 5753 5751 5749 5749 5751 5751 5754 5755 5755 5755 5756 5759 5761 5761 5761 5761 5762 5761 5759
5758 5758 5758 5758 5759 5760 5761 5761 5760 5760 5760 5761 5762 5762 5762 5762 5763 5764 5763 5761 5759 5758 5754 5753 5757 5759 5761 5763 5764 5766 5767 5767 5766 5765 5766 5765 5764 5765 5764 5765 5765 5764 5765 5764 5763 5765 5765 5764 5764 5764 5763 5762 5763 5763 5761 5759 5757 5758 5758 5756 5755 5754 5754 5754 5753 5751 5750 5749 5748 5746 5746 5746 5747 5748 5746 5745 5748 5749 5747 5747 5750 5751 5750 5751 5752 5752 5754 5753
5752 5753 5753 5753 5754 5755 5755 5755 5754 5754 5754 5755 5755 5755 5756 5756 5757 5759 5759 5756 5753 5750 5750 5751 5752 5752 5753 5754 5755 5757 5758 5759 5759 5758 5759 5758 5758 5758 5758 5758 5758 5757 5758 5757 5757 5759 5757 5757 5757 5756 5756 5757 5758 5756 5754 5753 5752 5752 5751 5750 5749 5747 5746 5746 5745 5745 5743 5742 5741 5741 5743 5743 5743 5745 5743 5740 5742 5743 5742 5742 5742 5742 5741 5742 5742 5740 5740 5740
5747 5748 5748 5748 5749 5749 5749 5750 5749 5748 5749 5749 5749 5749 5750 5750 5752 5753 5751 5749 5747 5746 5747 5748 5746 5745 5747 5748 5748 5749 5749 5750 5751 5751 5752 5752 5751 5751 5751 5751 5750 5750 5750 5749 5751 5752 5751 5750 5750 5749 5750 5750 5750 5749 5749 5749 5747 5746 5745 5744 5743 5740 5740 5738 5737 5738 5735 5734 5739 5739 5740 5741 5738 5738 5738 5738 5738 5736 5736 5737 5737 5738 5737 5736 5735 5733 5731 5730
5742 5742 5742 5742 5743 5743 5744 5744 5743 5742 5743 5743 5742 5743 5743 5744 5746 5746 5744 5743 5742 5741 5743 5743 5741 5741 5742 5743 5743 5743 5742 5742 5743 5743 5744 5745 5745 5745 5746 5746 5744 5744 5744 5743 5744 5744 5744 5743 5743 5744 5744 5743 5743 5742 5742 5742 5741 5740 5738 5738 5736 5733 5733 5730 5729 5730 5726 5728 5737 5736 5733 5734 5733 5732 5731 5732 5733 5732 5733 5732 5729 5731 5732 5729 5728 5726 5724 5723
5736 5736 5736 5736 5737 5737 5737 5737 5737 5736 5735 5736 5736 5736 5736 5736 5738 5740 5738 5738 5736 5735 5739 5739 5737 5736 5736 5737 5738 5737 5736 5736 5735 5736 5737 5737 5737 5739 5739 5739 5738 5737 5737 5737 5737 5737 5737 5737 5737 5736 5737 5738 5736 5734 5735 5735 5735 5734 5732 5731 5728 5725 5725 5721 5721 5721 5719 5723 5731 5729 5725 5723 5725 5729 5728 5727 5728 5730 5731 5728 5724 5724 5724 5722 5721 5719 5716 5713
5729 5729 5729 5730 5731 5731 5730 5730 5730 5729 5728 5729 5729 5729 5729 5728 5730 5734 5734 5733 5730 5731 5734 5733 5732 5731 5731 5732 5731 5730 5730 5729 5728 5729 5729 5729 5729 5731 5731 5731 5731 5729 5728 5728 5728 5728 5728 5730 5731 5729 5729 5730 5728 5728 5728 5728 5727 5725 5725 5723 5720 5718 5715 5711 5713 5713 5712 5717 5720 5719 5715 5712 5718 5726 5726 5725 5726 5725 5724 5722 5720 5719 5718 5715 5713 5712 5708 5704
5721 5721 5722 5723 5724 5723 5723 5722 5722 5721 5720 5720 5721 5721 5720 5721 5725 5728 5729 5729 5727 5726 5728 5728 5727 5726 5725 5726 5725 5724 5724 5721 5721 5722 5722 5721 5722 5723 5724 5724 5724 5722 5720 5719 5719 5719 5717 5719 5724 5722 5720 5722 5723 5722 5720 5719 5718 5716 5717 5715 5710 5712 5709 5703 5705 5705 5705 5707 5707 5707 5704 5703 5712 5721 5721 5723 5723 5719 5716 5715 5714 5712 5710 5707 5704 5702 5699 5697
5713 5713 5714 5715 5716 5715 5715 5715 5714 5713 5711 5711 5712 5710 5712 5717 5720 5721 5722 5723 5720 5718 5721 5722 5722 5720 5720 5720 5719 5719 5717 5713 5713 5714 5713 5714 5714 5715 5716 5716 5717 5716 5713 5711 5710 5710 5707 5708 5714 5713 5710 5712 5714 5714 5712 5710 5708 5707 5708 5706 5702 5705 5704 5697 5695 5696 5696 5694 5693 5695 5693 5695 5705 5711 5715 5718 5716 5714 5710 5707 5707 5703 5699 5697 5694 5693 5691 5690
5705 5706 5706 5708 5707 5706 5706 5707 5707 5705 5703 5704 5701 5701 5707 5712 5713 5712 5713 5714 5712 5711 5711 5712 5713 5713 5712 5712 5712 5712 5709 5706 5706 5706 5705 5705 5705 5706 5709 5709 5709 5709 5707 5704 5702 5701 5698 5700 5707 5705 5700 5700 5702 5702 5703 5701 5698 5696 5697 5697 5695 5696 5694 5690 5685 5685 5686 5679 5679 5685 5684 5687 5692 5696 5707 5713 5709 5708 5704 5698 5698 5694 5688 5686 5685 5684 5683 5681
5696 5697 5699 5700 5699 5696 5698 5699 5698 5696 5696 5694 5692 5695 5703 5705 5704 5705 5704 5704 5703 5702 5701 5701 5702 5703 5702 5702 5704 5704 5700 5698 5698 5698 5698 5698 5696 5698 5701 5700 5699 5699 5699 5696 5694 5693 5690 5691 5699 5698 5692 5691 5693 5693 5693 5690 5687 5685 5686 5687 5687 5685 5683 5681 5675 5673 5674 5667 5666 5672 5673 5677 5679 5681 5696 5704 5701 5700 5694 5687 5686 5683 5679 5677 5677 5678 5676 5674
5689 5689 5690 5692 5690 5688 5689 5690 5689 5688 5686 5684 5685 5691 5696 5696 5698 5698 5696 5695 5695 5693 5691 5691 5691 5692 5692 5693 5695 5694 5691 5689 5689 5688 5689 5689 5688 5691 5693 5691 5689 5690 5690 5688 5685 5685 5682 5680 5685 5689 5685 5682 5685 5687 5684 5681 5680 5679 5678 5677 5677 5674 5672 5672 5667 5663 5663 5658 5656 5659 5661 5664 5667 5672 5683 5689 5688 5688 5683 5676 5674 5671 5670 5670 5671 5672 5671 5668
5681 5682 5682 5683 5683 5681 5681 5681 5680 5679 5676 5676 5680 5685 5688 5689 5690 5690 5688 5687 5686 5684 5683 5683 5683 5682 5682 5684 5685 5684 5683 5681 5680 5679 5680 5679 5680 5683 5684 5680 5680 5682 5681 5679 5677 5676 5674 5669 5669 5677 5678 5673 5674 5679 5676 5674 5674 5674 5671 5669 5668 5666 5664 5663 5660 5656 5654 5650 5646 5647 5647 5650 5658 5666 5671 5672 5675 5675 5669 5663 5661 5662 5664 5663 5662 5662 5661 5660
5674 5674 5674 5676 5675 5673 5673 5672 5671 5670 5668 5670 5675 5678 5679 5681 5681 5682 5681 5679 5677 5675 5674 5675 5675 5673 5674 5676 5676 5676 5675 5672 5672 5672 5670 5670 5672 5675 5675 5672 5672 5674 5673 5671 5670 5667 5665 5662 5659 5665 5668 5663 5665 5671 5669 5667 5668 5666 5663 5662 5661 5659 5657 5653 5650 5651 5650 5643 5638 5636 5632 5637 5651 5659 5661 5663 5663 5660 5654 5651 5651 5653 5656 5654 5652 5650 5649 5649
5666 5666 5666 5667 5666 5665 5665 5663 5662 5663 5661 5663 5668 5669 5670 5672 5673 5675 5673 5670 5669 5667 5666 5667 5666 5666 5666 5667 5668 5668 5666 5663 5664 5664 5662 5662 5664 5664 5666 5666 5665 5666 5665 5664 5663 5661 5659 5656 5652 5655 5659 5657 5661 5666 5664 5659 5660 5659 5656 5655 5654 5653 5651 5645 5639 5643 5645 5636 5632 5629 5620 5625 5641 5649 5652 5654 5650 5645 5644 5646 5644 5643 5642 5641 5640 5639 5638 5638
5659 5659 5658 5659 5658 5657 5656 5654 5656 5657 5654 5657 5662 5662 5661 5662 5664 5665 5664 5662 5660 5658 5658 5658 5658 5659 5658 5658 5659 5659 5657 5655 5655 5656 5654 5655 5657 5656 5656 5658 5656 5656 5656 5654 5654 5654 5651 5647 5643 5646 5651 5652 5655 5659 5657 5652 5652 5651 5648 5648 5648 5645 5643 5637 5630 5634 5635 5627 5625 5622 5612 5614 5629 5639 5642 5641 5635 5633 5636 5637 5636 5633 5632 5631 5629 5628 5627 5626
5650 5650 5650 5650 5649 5649 5648 5647 5650 5649 5647 5651 5654 5653 5652 5653 5655 5657 5657 5653 5650 5649 5650 5649 5649 5650 5649 5651 5650 5648 5648 5645 5644 5647 5646 5645 5647 5647 5647 5648 5647 5647 5647 5644 5644 5644 5641 5638 5635 5635 5637 5641 5645 5649 5649 5645 5643 5641 5639 5641 5639 5635 5634 5630 5624 5623 5621 5616 5618 5614 5604 5607 5619 5627 5630 5626 5622 5622 5623 5624 5624 5623 5623 5622 5620 5619 5616 5613
5642 5641 5640 5641 5641 5639 5639 5641 5643 5641 5641 5643 5644 5643 5644 5644 5647 5650 5649 5644 5642 5641 5640 5639 5641 5641 5640 5641 5640 5639 5639 5635 5633 5638 5638 5636 5637 5638 5638 5638 5638 5639 5638 5636 5635 5635 5632 5630 5628 5624 5622 5625 5632 5638 5639 5636 5633 5630 5629 5630 5629 5626 5625 5621 5618 5616 5608 5605 5611 5604 5595 5601 5613 5616 5615 5611 5609 5611 5611 5611 5612 5612 5612 5612 5610 5608 5606 5604
5633 5632 5632 5633 5632 5631 5631 5633 5634 5633 5633 5634 5633 5635 5636 5636 5639 5641 5638 5635 5634 5633 5631 5631 5632 5632 5631 5630 5629 5629 5631 5628 5625 5627 5628 5628 5628 5628 5628 5627 5628 5630 5629 5627 5627 5626 5622 5621 5621 5617 5612 5612 5616 5623 5627 5625 5621 5618 5618 5619 5618 5618 5617 5613 5610 5606 5598 5597 5601 5595 5588 5594 5604 5605 5603 5601 5601 5601 5601 5601 5601 5601 5601 5600 5598 5597 5596 5594
5624 5624 5623 5624 5623 5623 5624 5624 5623 5624 5625 5624 5623 5625 5627 5628 5630 5630 5627 5627 5626 5624 5623 5622 5623 5622 5621 5621 5620 5619 5621 5621 5618 5616 5618 5620 5620 5619 5619 5618 5619 5620 5619 5618 5619 5617 5611 5609 5611 5609 5605 5604 5605 5608 5611 5611 5608 5606 5606 5607 5608 5610 5609 5606 5599 5594 5591 5588 5586 5587 5586 5584 5587 5593 5593 5592 5592 5591 5590 5591 5591 5591 5590 5588 5587 5585 5584 5583
5615 5615 5615 5615 5614 5615 5617 5615 5614 5615 5616 5614 5613 5615 5619 5620 5620 5618 5618 5618 5616 5615 5615 5614 5614 5613 5611 5613 5612 5608 5610 5612 5609 5608 5610 5611 5611 5610 5609 5609 5610 5610 5610 5609 5608 5608 5602 5597 5601 5602 5597 5596 5597 5597 5598 5598 5595 5594 5593 5594 5597 5599 5599 5596 5589 5585 5585 5577 5570 5579 5584 5574 5572 5579 5579 5578 5580 5579 5579 5580 5580 5580 5579 5577 5576 5574 5573 5573
5605 5605 5606 5606 5606 5607 5608 5607 5607 5606 5607 5606 5603 5606 5611 5612 5610 5608 5608 5607 5607 5607 5606 5604 5605 5605 5603 5604 5603 5599 5600 5601 5600 5601 5601 5601 5602 5601 5599 5600 5599 5600 5601 5600 5598 5598 5592 5588 5593 5593 5586 5586 5588 5588 5589 5588 5584 5582 5581 5581 5583 5586 5587 5585 5580 5578 5578 5567 5560 5569 5572 5564 5563 5565 5564 5565 5567 5566 5566 5568 5568 5567 5566 5566 5565 5563 5562 5562
5596 5597 5598 5597 5598 5599 5599 5599 5599 5598 5600 5598 5594 5598 5602 5601 5601 5600 5598 5597 5597 5599 5597 5594 5595 5596 5596 5596 5594 5590 5591 5591 5591 5593 5593 5592 5593 5591 5590 5590 5589 5590 5591 5591 5590 5588 5582 5580 5583 5581 5574 5575 5578 5579 5580 5578 5573 5572 5571 5570 5571 5573 5575 5574 5570 5570 5569 5560 5556 5558 5556 5553 5553 5552 5551 5553 5554 5553 5553 5553 5553 5553 5552 5552 5551 5551 5550 5550
5587 5588 5589 5589 5590 5590 5590 5590 5590 5590 5592 5589 5586 5590 5592 5590 5591 5592 5589 5587 5587 5589 5589 5585 5585 5586 5586 5587 5586 5582 5582 5582 5582 5583 5584 5584 5583 5581 5581 5581 5580 5580 5581 5581 5581 5578 5573 5571 5572 5571 5564 5562 5568 5571 5569 5566 5562 5559 5559 5562 5564 5565 5564 5562 5560 5559 5557 5551 5550 5550 5546 5543 5543 5542 5541 5540 5539 5540 5540 5539 5539 5539 5538 5538 5538 5538 5538 5538
5578 5579 5580 5581 5581 5582 5582 5583 5582 5581 5583 5582 5580 5581 5581 5580 5582 5583 5581 5579 5577 5578 5580 5577 5576 5577 5575 5576 5577 5575 5573 5573 5573 5573 5574 5574 5573 5572 5572 5571 5571 5571 5571 5572 5572 5569 5566 5561 5561 5561 5552 5550 5561 5563 5556 5554 5550 5545 5548 5555 5559 5557 5553 5550 5549 5548 5545 5541 5541 5541 5538 5536 5535 5533 5531 5528 5526 5526 5526 5525 5526 5526 5525 5525 5525 5525 5526 5525
5569 5570 5572 5572 5572 5574 5574 5574 5574 5573 5574 5575 5573 5572 5572 5572 5573 5573 5571 5570 5569 5570 5570 5568 5567 5566 5565 5565 5566 5566 5565 5564 5564 5564 5564 5564 5564 5564 5563 5562 5562 5562 5562 5563 5560 5559 5560 5554 5552 5552 5541 5539 5553 5554 5544 5541 5534 5532 5545 5553 5549 5546 5543 5540 5540 5539 5536 5533 5530 5530 5529 5527 5526 5524 5521 5518 5514 5513 5512 5512 5513 5514 5514 5513 5513 5513 5512 5512